Lander, WY

8:13 AM MST on December 07, 2016 (GMT -0700)
Hunt

Weather History for KLND - November, 2011

Change the Weather History Date:

Thursday, November 17, 2011

  Actual Average Record
Temperature  
Mean Temperature 35 °F 30 °F  
Max Temperature 53 °F 42 °F 67 °F (2008)
Min Temperature 17 °F 19 °F -10 °F (1978)
Degree Days  
Heating Degree Days 30 35  
Month to date heating degree days 552 513  
Since 1 July heating degree days 1153 1374  
Cooling Degree Days 0 0  
Month to date cooling degree days 0 0  
Year to date cooling degree days 576 472  
Moisture  
Dew Point 15 °F    
Average Humidity 41    
Maximum Humidity 54    
Minimum Humidity 27    
Precipitation  
Precipitation T in 0.03 in 1.03 in (2016)
Month to date precipitation 0.56 0.52  
Year to date precipitation 14.02 11.74  
Snow  
Snow 0.00 in 0.50 in - ()
Month to date snowfall 5.2 7.3  
Since 1 July snowfall 9.2 19.8  
Since 1 September snowfall 9.2 19.8  
Snow Depth 0.00 in    
Sea Level Pressure  
Sea Level Pressure 29.82 in    
Wind  
Wind Speed 10 mph (SW)    
Max Wind Speed 36 mph    
Max Gust Speed 58 mph    
Visibility 10 miles    
Events Rain    
T = Trace of Precipitation, MM = Missing Value Source: NWS Daily Summary

Daily Weather History Graph

Daily Weather History Graph

Search for Another Location

Airport or City:

Trip Planner

Search our weather history database for the weather conditions in past years. The results will help you decide how hot, cold, wet, or windy it might be!

Date:

Astronomy

Nov. 17, 2011 Rise Set
Actual Time 7:09 AM MST 4:50 PM MST
Civil Twilight 6:38 AM MST 5:20 PM MST
Nautical Twilight 6:04 AM MST 5:55 PM MST
Astronomical Twilight 5:30 AM MST 6:28 PM MST
Moon 11:17 PM MST (11/17) 12:17 PM MST (11/17)
Length of Visible Light 10h 42m
Length of Day
9h 41m
Waning Gibbous, 59% of the Moon is Illuminated
Nov 17
Waning Gibbous
Nov 18
Last Quarter
Nov 24
New
Dec 2
First Quarter
Dec 10
Full

Hourly Weather History & Observations

Time (MST) Temp. Windchill Dew Point Humidity Pressure Visibility Wind Dir Wind Speed Gust Speed Precip Events Conditions
12:53 AM 21.0 °F 16.2 °F 1.0 °F 42% 30.17 in 10.0 mi SSE 3.5 mph - N/A   Clear
1:53 AM 19.9 °F 14.9 °F 1.9 °F 46% 30.14 in 10.0 mi SW 3.5 mph - N/A   Clear
2:53 AM 19.9 °F - 1.9 °F 46% 30.10 in 10.0 mi Calm Calm - N/A   Clear
3:53 AM 23.0 °F 13.1 °F 1.0 °F 39% 30.06 in 10.0 mi WSW 9.2 mph - N/A   Clear
4:53 AM 21.0 °F 11.4 °F 1.9 °F 44% 30.08 in 10.0 mi West 8.1 mph - N/A   Clear
5:53 AM 18.0 °F 9.8 °F 3.0 °F 52% 30.08 in 10.0 mi SE 5.8 mph - N/A   Clear
6:53 AM 21.0 °F - 1.0 °F 42% 30.07 in 10.0 mi Calm Calm - N/A   Clear
7:53 AM 23.0 °F 17.0 °F 3.9 °F 44% 30.03 in 10.0 mi SE 4.6 mph - N/A   Clear
8:53 AM 30.0 °F 26.5 °F 10.0 °F 43% 29.97 in 10.0 mi ENE 3.5 mph - N/A   Clear
9:53 AM 35.1 °F 30.1 °F 9.0 °F 34% 29.94 in 10.0 mi NW 5.8 mph - N/A   Clear
10:53 AM 43.0 °F 38.8 °F 10.0 °F 26% 29.85 in 10.0 mi ESE 6.9 mph - N/A   Clear
11:53 AM 50.0 °F - 18.0 °F 28% 29.74 in 10.0 mi NW 23.0 mph 34.5 mph N/A   Clear
12:10 PM 51.8 °F - 21.2 °F 30% 29.73 in 10.0 mi WNW 32.2 mph 43.7 mph N/A   Clear
12:53 PM 52.0 °F - 21.0 °F 30% 29.73 in 10.0 mi WNW 28.8 mph 44.9 mph N/A   Clear
1:53 PM 50.0 °F - 19.9 °F 31% 29.73 in 10.0 mi WNW 17.3 mph 26.5 mph N/A   Clear
2:53 PM 51.1 °F - 21.0 °F 31% 29.73 in 10.0 mi SSE 6.9 mph 21.9 mph N/A   Clear
3:44 PM 50.0 °F - 21.2 °F 32% 29.70 in 10.0 mi WNW 10.4 mph 28.8 mph N/A   Partly Cloudy
3:53 PM 48.9 °F - 21.0 °F 33% 29.71 in 10.0 mi South 12.7 mph 21.9 mph N/A   Partly Cloudy
4:53 PM 46.0 °F 42.5 °F 21.9 °F 39% 29.72 in 10.0 mi SSW 6.9 mph 18.4 mph N/A   Partly Cloudy
5:53 PM 46.9 °F - 19.9 °F 34% 29.72 in 10.0 mi SSW 12.7 mph 19.6 mph N/A   Scattered Clouds
6:53 PM 48.0 °F - 21.0 °F 34% 29.69 in 10.0 mi North 11.5 mph 44.9 mph N/A   Mostly Cloudy
7:53 PM 42.1 °F 39.2 °F 21.9 °F 45% 29.68 in 10.0 mi Variable 4.6 mph - N/A   Clear
8:48 PM 46.4 °F 38.3 °F 24.8 °F 43% 29.60 in 10.0 mi SW 23.0 mph 41.4 mph N/A   Clear
8:53 PM 46.0 °F 35.9 °F 24.1 °F 42% 29.58 in 10.0 mi SW 35.7 mph 49.5 mph N/A   Clear
9:53 PM 45.0 °F 34.4 °F 24.1 °F 44% 29.57 in 10.0 mi SW 35.7 mph 44.9 mph 0.00 in Rain Light Rain
10:53 PM 45.0 °F 35.6 °F 23.0 °F 42% 29.53 in 10.0 mi SW 27.6 mph 35.7 mph 0.00 in   Scattered Clouds
11:53 PM 46.0 °F 37.0 °F 23.0 °F 40% 29.46 in 10.0 mi SW 27.6 mph 41.4 mph N/A   Scattered Clouds